"Sample Date","Sample Time","Sample Value","Units","Flow Rate","Laser Status","Micron Size 0","Counts/Channel 0","Micron Size 1","Counts/Channel 1","Micron Size 2","Counts/Channel 2","Micron Size 3","Counts/Channel 3","Micron Size 4","Counts/Channel 4","Micron Size 5","Counts/Channel 5","Micron Size 6","Counts/Channel 6","Micron Size 7","Counts/Channel 7","Micron Size 8","Counts/Channel 8","Micron Size 9","Counts/Channel 9","Micron Size 10","Counts/Channel 10","Micron Size 11","Counts/Channel 11","Micron Size 12","Counts/Channel 12","Micron Size 13","Counts/Channel 13","Micron Size 14","Counts/Channel 14","Micron Size 15","Counts/Channel 15","Micron Size 16","Counts/Channel 16","Micron Size 17","Counts/Channel 17","Micron Size 18","Counts/Channel 18","Micron Size 19","Counts/Channel 19","Micron Size 20","Counts/Channel 20","Micron Size 21","Counts/Channel 21","Micron Size 22","Counts/Channel 22","Micron Size 23","Counts/Channel 23","Micron Size 24","Counts/Channel 24","Micron Size 25","Counts/Channel 25","Micron Size 26","Counts/Channel 26","Micron Size 27","Counts/Channel 27","Micron Size 28","Counts/Channel 28","Micron Size 29","Counts/Channel 29","Micron Size 30","Counts/Channel 30","Micron Size 31","Counts/Channel 31"
"03/03/08","23:00:04",46310.000,"cc",28267.088,1,0.100,37923.000,0.200,3982.000,0.300,1917.000,0.500,1828.000,1.000,660.000,5.000,0
"03/03/08","23:00:10",47785.000,"cc",28319.580,1,0.100,38446.000,0.200,4490.000,0.300,2104.000,0.500,2008.000,1.000,737.000,5.000,0
"03/03/08","23:00:16",45235.000,"cc",28334.098,1,0.100,37158.000,0.200,3912.000,0.300,1852.000,0.500,1695.000,1.000,618.000,5.000,0
"03/03/08","23:00:22",43639.000,"cc",28310.762,1,0.100,36406.000,0.200,3623.000,0.300,1531.000,0.500,1552.000,1.000,527.000,5.000,0
"03/03/08","23:00:28",43804.000,"cc",28315.727,1,0.100,36559.000,0.200,3619.000,0.300,1511.000,0.500,1549.000,1.000,566.000,5.000,0
"03/03/08","23:00:34",45121.000,"cc",28271.377,1,0.100,36863.000,0.200,4005.000,0.300,1861.000,0.500,1749.000,1.000,643.000,5.000,0
"03/03/08","23:00:40",45798.000,"cc",28348.141,1,0.100,37477.000,0.200,4086.000,0.300,1910.000,0.500,1697.000,1.000,628.000,5.000,0
"03/03/08","23:00:46",48875.000,"cc",28263.535,1,0.100,39115.000,0.200,4615.000,0.300,2328.000,0.500,2110.000,1.000,707.000,5.000,0
"03/03/08","23:00:52",48697.000,"cc",28317.078,1,0.100,38849.000,0.200,4728.000,0.300,2325.000,0.500,2093.000,1.000,702.000,5.000,0
"03/03/08","23:00:58",48196.000,"cc",28308.863,1,0.100,38721.000,0.200,4636.000,0.300,2108.000,0.500,2035.000,1.000,696.000,5.000,0
"03/03/08","23:01:04",48018.000,"cc",28379.393,1,0.100,38346.000,0.200,4637.000,0.300,2282.000,0.500,2062.000,1.000,691.000,5.000,0
"03/03/08","23:01:10",47257.000,"cc",28328.418,1,0.100,38189.000,0.200,4377.000,0.300,2136.000,0.500,1912.000,1.000,643.000,5.000,0
"03/03/08","23:01:16",42800.000,"cc",28347.010,1,0.100,36064.000,0.200,3338.000,0.300,1387.000,0.500,1504.000,1.000,507.000,5.000,0
"03/03/08","23:01:22",45749.000,"cc",28322.025,1,0.100,37555.000,0.200,4014.000,0.300,1826.000,0.500,1745.000,1.000,609.000,5.000,0
"03/03/08","23:01:28",45120.000,"cc",28362.066,1,0.100,37066.000,0.200,3984.000,0.300,1709.000,0.500,1711.000,1.000,650.000,5.000,0
"03/03/08","23:01:34",47851.000,"cc",28274.725,1,0.100,38370.000,0.200,4574.000,0.300,2193.000,0.500,2034.000,1.000,680.000,5.000,0
"03/03/08","23:01:40",49488.000,"cc",28311.387,1,0.100,39551.000,0.200,4776.000,0.300,2369.000,0.500,2098.000,1.000,694.000,5.000,0
"03/03/08","23:01:46",48761.000,"cc",28326.190,1,0.100,39341.000,0.200,4463.000,0.300,2207.000,0.500,2075.000,1.000,675.000,5.000,0
"03/03/08","23:01:52",42753.000,"cc",28306.440,1,0.100,36207.000,0.200,3267.000,0.300,1432.000,0.500,1345.000,1.000,502.000,5.000,0
"03/03/08","23:01:58",45153.000,"cc",28291.000,1,0.100,37223.000,0.200,3879.000,0.300,1742.000,0.500,1700.000,1.000,609.000,5.000,0
"03/03/08","23:02:04",44925.000,"cc",28304.900,1,0.100,36878.000,0.200,3846.000,0.300,1850.000,0.500,1712.000,1.000,639.000,5.000,0
"03/03/08","23:02:10",44133.000,"cc",28416.416,1,0.100,36529.000,0.200,3733.000,0.300,1636.000,0.500,1684.000,1.000,551.000,5.000,0
"03/03/08","23:02:16",46139.000,"cc",28224.959,1,0.100,37501.000,0.200,4131.000,0.300,2055.000,0.500,1819.000,1.000,633.000,5.000,0
"03/03/08","23:02:22",44627.000,"cc",28305.242,1,0.100,37061.000,0.200,3709.000,0.300,1636.000,0.500,1624.000,1.000,597.000,5.000,0
"03/03/08","23:02:28",43822.000,"cc",28269.617,1,0.100,36303.000,0.200,3591.000,0.300,1723.000,0.500,1643.000,1.000,562.000,5.000,0
"03/03/08","23:02:34",45471.000,"cc",28330.981,1,0.100,36916.000,0.200,4183.000,0.300,1914.000,0.500,1838.000,1.000,620.000,5.000,0
"03/03/08","23:02:40",44237.000,"cc",28353.838,1,0.100,36499.000,0.200,3804.000,0.300,1683.000,0.500,1673.000,1.000,578.000,5.000,0
"03/03/08","23:02:46",44646.000,"cc",28347.822,1,0.100,36793.000,0.200,3794.000,0.300,1817.000,0.500,1698.000,1.000,544.000,5.000,0
"03/03/08","23:02:52",44528.000,"cc",28296.207,1,0.100,36679.000,0.200,3812.000,0.300,1789.000,0.500,1690.000,1.000,557.000,5.000,1.000
"03/03/08","23:02:58",46201.000,"cc",28280.984,1,0.100,37785.000,0.200,4084.000,0.300,1884.000,0.500,1843.000,1.000,605.000,5.000,0
"03/03/08","23:03:04",44732.000,"cc",28357.744,1,0.100,37294.000,0.200,3619.000,0.300,1619.000,0.500,1604.000,1.000,596.000,5.000,0
"03/03/08","23:03:10",44755.000,"cc",28315.863,1,0.100,37348.000,0.200,3655.000,0.300,1572.000,0.500,1627.000,1.000,553.000,5.000,0
"03/03/08","23:03:16",43193.000,"cc",28334.213,1,0.100,36151.000,0.200,3485.000,0.300,1527.000,0.500,1514.000,1.000,516.000,5.000,0
"03/03/08","23:03:22",41895.000,"cc",28331.332,1,0.100,35478.000,0.200,3233.000,0.300,1321.000,0.500,1386.000,1.000,477.000,5.000,0
"03/03/08","23:03:28",43315.000,"cc",28282.947,1,0.100,35862.000,0.200,3555.000,0.300,1675.000,0.500,1659.000,1.000,564.000,5.000,0
"03/03/08","23:03:34",45132.000,"cc",28335.084,1,0.100,36796.000,0.200,4021.000,0.300,1893.000,0.500,1784.000,1.000,638.000,5.000,0
"03/03/08","23:03:40",44912.000,"cc",28296.641,1,0.100,36965.000,0.200,3851.000,0.300,1817.000,0.500,1674.000,1.000,605.000,5.000,0
"03/03/08","23:03:46",41417.000,"cc",28320.565,1,0.100,35204.000,0.200,3065.000,0.300,1234.000,0.500,1355.000,1.000,559.000,5.000,0
"03/03/08","23:03:52",44503.000,"cc",28318.961,1,0.100,36626.000,0.200,3851.000,0.300,1813.000,0.500,1657.000,1.000,556.000,5.000,0
"03/03/08","23:03:58",48224.000,"cc",28326.785,1,0.100,38282.000,0.200,4731.000,0.300,2396.000,0.500,2118.000,1.000,697.000,5.000,0
"03/03/08","23:04:04",48560.000,"cc",28289.842,1,0.100,38930.000,0.200,4607.000,0.300,2316.000,0.500,1958.000,1.000,749.000,5.000,0
"03/03/08","23:04:10",45349.000,"cc",28315.736,1,0.100,37241.000,0.200,3948.000,0.300,1812.000,0.500,1732.000,1.000,616.000,5.000,0
"03/03/08","23:04:16",46304.000,"cc",28320.150,1,0.100,37907.000,0.200,4016.000,0.300,1864.000,0.500,1823.000,1.000,694.000,5.000,0
"03/03/08","23:04:22",47541.000,"cc",28324.881,1,0.100,38680.000,0.200,4291.000,0.300,2048.000,0.500,1875.000,1.000,647.000,5.000,0
"03/03/08","23:04:28",47462.000,"cc",28362.000,1,0.100,38357.000,0.200,4353.000,0.300,2101.000,0.500,1942.000,1.000,709.000,5.000,0
"03/03/08","23:04:34",51838.000,"cc",28282.809,1,0.100,40326.000,0.200,5461.000,0.300,2787.000,0.500,2454.000,1.000,810.000,5.000,0
"03/03/08","23:04:40",49263.000,"cc",28298.246,1,0.100,38949.000,0.200,5019.000,0.300,2392.000,0.500,2151.000,1.000,751.000,5.000,1.000
"03/03/08","23:04:46",49733.000,"cc",28330.545,1,0.100,39455.000,0.200,4810.000,0.300,2493.000,0.500,2223.000,1.000,752.000,5.000,0
"03/03/08","23:04:52",47633.000,"cc",28294.785,1,0.100,38333.000,0.200,4478.000,0.300,2169.000,0.500,1988.000,1.000,665.000,5.000,0
"03/03/08","23:04:58",46780.000,"cc",28312.797,1,0.100,38034.000,0.200,4334.000,0.300,2003.000,0.500,1798.000,1.000,611.000,5.000,0
"03/03/08","23:05:04",46640.000,"cc",28325.791,1,0.100,38002.000,0.200,4209.000,0.300,1985.000,0.500,1770.000,1.000,674.000,5.000,0
"03/03/08","23:05:10",45075.000,"cc",28370.254,1,0.100,37434.000,0.200,3803.000,0.300,1652.000,0.500,1624.000,1.000,562.000,5.000,0
"03/03/08","23:05:16",48940.000,"cc",28278.904,1,0.100,39495.000,0.200,4639.000,0.300,2209.000,0.500,1943.000,1.000,654.000,5.000,0
"03/03/08","23:05:22",50656.000,"cc",28305.225,1,0.100,40941.000,0.200,4818.000,0.300,2212.000,0.500,2039.000,1.000,646.000,5.000,0
"03/03/08","23:05:28",51330.000,"cc",28364.219,1,0.100,41712.000,0.200,4903.000,0.300,2128.000,0.500,1903.000,1.000,684.000,5.000,0
"03/03/08","23:05:34",47369.000,"cc",28290.303,1,0.100,39111.000,0.200,4119.000,0.300,1817.000,0.500,1726.000,1.000,596.000,5.000,0
"03/03/08","23:05:40",50432.000,"cc",28326.316,1,0.100,41402.000,0.200,4685.000,0.300,1974.000,0.500,1765.000,1.000,606.000,5.000,0
"03/03/08","23:05:46",49303.000,"cc",28330.406,1,0.100,40420.000,0.200,4481.000,0.300,1954.000,0.500,1822.000,1.000,626.000,5.000,0
"03/03/08","23:05:52",52958.000,"cc",28341.504,1,0.100,42175.000,0.200,5386.000,0.300,2531.000,0.500,2165.000,1.000,701.000,5.000,0
"03/03/08","23:05:58",47329.000,"cc",28287.955,1,0.100,39463.000,0.200,3958.000,0.300,1670.000,0.500,1638.000,1.000,600.000,5.000,0
"03/03/08","23:06:04",45479.000,"cc",28329.266,1,0.100,38021.000,0.200,3866.000,0.300,1580.000,0.500,1512.000,1.000,500.000,5.000,0
"03/03/08","23:06:10",49301.000,"cc",28291.822,1,0.100,40321.000,0.200,4542.000,0.300,2025.000,0.500,1788.000,1.000,625.000,5.000,0
"03/03/08","23:06:16",49269.000,"cc",28389.023,1,0.100,40074.000,0.200,4622.000,0.300,2018.000,0.500,1904.000,1.000,651.000,5.000,0
"03/03/08","23:06:22",49355.000,"cc",28241.158,1,0.100,39841.000,0.200,4681.000,0.300,2145.000,0.500,2004.000,1.000,684.000,5.000,0
"03/03/08","23:06:28",50283.000,"cc",28319.451,1,0.100,39610.000,0.200,5132.000,0.300,2514.000,0.500,2264.000,1.000,763.000,5.000,0
"03/03/08","23:06:34",52198.000,"cc",28359.404,1,0.100,40749.000,0.200,5392.000,0.300,2825.000,0.500,2435.000,1.000,797.000,5.000,0
"03/03/08","23:06:40",50996.000,"cc",28378.934,1,0.100,40332.000,0.200,5169.000,0.300,2470.000,0.500,2246.000,1.000,779.000,5.000,0
"03/03/08","23:06:46",50084.000,"cc",28314.156,1,0.100,40159.000,0.200,4771.000,0.300,2380.000,0.500,2051.000,1.000,723.000,5.000,0
"03/03/08","23:06:52",47525.000,"cc",28244.369,1,0.100,38648.000,0.200,4424.000,0.300,2001.000,0.500,1797.000,1.000,655.000,5.000,0
"03/03/08","23:06:58",47111.000,"cc",28195.328,1,0.100,38447.000,0.200,4272.000,0.300,1949.000,0.500,1808.000,1.000,635.000,5.000,0
"03/03/08","23:07:04",50145.000,"cc",28313.900,1,0.100,40405.000,0.200,4728.000,0.300,2260.000,0.500,2109.000,1.000,643.000,5.000,0
"03/03/08","23:07:10",45946.000,"cc",28359.088,1,0.100,37890.000,0.200,3987.000,0.300,1717.000,0.500,1736.000,1.000,616.000,5.000,0
"03/03/08","23:07:16",50190.000,"cc",28326.791,1,0.100,40528.000,0.200,4869.000,0.300,2146.000,0.500,1966.000,1.000,681.000,5.000,0
"03/03/08","23:07:22",48876.000,"cc",28325.641,1,0.100,39740.000,0.200,4497.000,0.300,2096.000,0.500,1897.000,1.000,646.000,5.000,0
"03/03/08","23:07:28",46767.000,"cc",28246.041,1,0.100,38386.000,0.200,4207.000,0.300,1833.000,0.500,1706.000,1.000,635.000,5.000,0
"03/03/08","23:07:34",45310.000,"cc",28327.791,1,0.100,37551.000,0.200,3820.000,0.300,1712.000,0.500,1619.000,1.000,608.000,5.000,0
"03/03/08","23:07:40",46155.000,"cc",28324.674,1,0.100,37983.000,0.200,3998.000,0.300,1806.000,0.500,1782.000,1.000,586.000,5.000,0
"03/03/08","23:07:46",43110.000,"cc",28363.043,1,0.100,36181.000,0.200,3399.000,0.300,1482.000,0.500,1503.000,1.000,545.000,5.000,0
"03/03/08","23:07:52",44928.000,"cc",28306.305,1,0.100,37020.000,0.200,3778.000,0.300,1746.000,0.500,1734.000,1.000,650.000,5.000,0
"03/03/08","23:07:58",48008.000,"cc",28272.565,1,0.100,38958.000,0.200,4391.000,0.300,2108.000,0.500,1928.000,1.000,623.000,5.000,0
"03/03/08","23:08:04",47978.000,"cc",28392.379,1,0.100,38995.000,0.200,4373.000,0.300,2028.000,0.500,1924.000,1.000,658.000,5.000,0
"03/03/08","23:08:10",49540.000,"cc",28336.205,1,0.100,39543.000,0.200,4805.000,0.300,2343.000,0.500,2101.000,1.000,748.000,5.000,0
"03/03/08","23:08:16",50254.000,"cc",28310.340,1,0.100,40051.000,0.200,4901.000,0.300,2423.000,0.500,2157.000,1.000,722.000,5.000,0
"03/03/08","23:08:22",52205.000,"cc",28296.625,1,0.100,40875.000,0.200,5362.000,0.300,2749.000,0.500,2431.000,1.000,788.000,5.000,0
"03/03/08","23:08:28",53941.000,"cc",28283.520,1,0.100,41718.000,0.200,5912.000,0.300,2863.000,0.500,2571.000,1.000,877.000,5.000,0
"03/03/08","23:08:34",51803.000,"cc",28308.375,1,0.100,40484.000,0.200,5365.000,0.300,2762.000,0.500,2367.000,1.000,825.000,5.000,0
"03/03/08","23:08:40",50258.000,"cc",28291.178,1,0.100,40181.000,0.200,4902.000,0.300,2348.000,0.500,2115.000,1.000,712.000,5.000,0
"03/03/08","23:08:46",47008.000,"cc",28325.957,1,0.100,38372.000,0.200,4258.000,0.300,1935.000,0.500,1825.000,1.000,618.000,5.000,0
"03/03/08","23:08:52",48301.000,"cc",28357.647,1,0.100,38777.000,0.200,4576.000,0.300,2204.000,0.500,2067.000,1.000,677.000,5.000,0
"03/03/08","23:08:58",45230.000,"cc",28308.115,1,0.100,37194.000,0.200,3904.000,0.300,1842.000,0.500,1704.000,1.000,586.000,5.000,0
"03/03/08","23:09:04",44057.000,"cc",28321.449,1,0.100,36404.000,0.200,3792.000,0.300,1701.000,0.500,1599.000,1.000,561.000,5.000,0
"03/03/08","23:09:10",44219.000,"cc",28286.979,1,0.100,36337.000,0.200,3841.000,0.300,1794.000,0.500,1645.000,1.000,602.000,5.000,0
"03/03/08","23:09:16",44001.000,"cc",28299.342,1,0.100,36428.000,0.200,3650.000,0.300,1705.000,0.500,1613.000,1.000,605.000,5.000,0
"03/03/08","23:09:22",41539.000,"cc",28352.506,1,0.100,35317.000,0.200,3138.000,0.300,1241.000,0.500,1406.000,1.000,437.000,5.000,0
"03/03/08","23:09:28",46145.000,"cc",28355.020,1,0.100,37449.000,0.200,4177.000,0.300,2010.000,0.500,1883.000,1.000,626.000,5.000,0
"03/03/08","23:09:34",43934.000,"cc",28331.420,1,0.100,36443.000,0.200,3707.000,0.300,1634.000,0.500,1613.000,1.000,537.000,5.000,0
"03/03/08","23:09:40",43538.000,"cc",28217.451,1,0.100,36093.000,0.200,3595.000,0.300,1663.000,0.500,1614.000,1.000,573.000,5.000,0
"03/03/08","23:09:46",45330.000,"cc",28352.410,1,0.100,37182.000,0.200,3894.000,0.300,1905.000,0.500,1748.000,1.000,601.000,5.000,0
"03/03/08","23:09:52",45650.000,"cc",28337.488,1,0.100,37064.000,0.200,4189.000,0.300,1989.000,0.500,1801.000,1.000,607.000,5.000,0
"03/03/08","23:09:58",45421.000,"cc",28349.434,1,0.100,37044.000,0.200,4088.000,0.300,1890.000,0.500,1753.000,1.000,646.000,5.000,0
"03/03/08","23:10:04",45068.000,"cc",28303.252,1,0.100,37087.000,0.200,3957.000,0.300,1761.000,0.500,1692.000,1.000,571.000,5.000,0
"03/03/08","23:10:10",42545.000,"cc",28250.488,1,0.100,35889.000,0.200,3261.000,0.300,1445.000,0.500,1478.000,1.000,472.000,5.000,0
"03/03/08","23:10:16",41506.000,"cc",28353.525,1,0.100,35051.000,0.200,3249.000,0.300,1303.000,0.500,1402.000,1.000,501.000,5.000,0
"03/03/08","23:10:22",42955.000,"cc",28337.426,1,0.100,35951.000,0.200,3425.000,0.300,1576.000,0.500,1477.000,1.000,526.000,5.000,0
"03/03/08","23:10:28",43696.000,"cc",28315.545,1,0.100,36222.000,0.200,3620.000,0.300,1667.000,0.500,1656.000,1.000,531.000,5.000,0
"03/03/08","23:10:34",45565.000,"cc",28332.117,1,0.100,36999.000,0.200,4032.000,0.300,2006.000,0.500,1868.000,1.000,660.000,5.000,0
"03/03/08","23:10:40",42292.000,"cc",28370.482,1,0.100,35634.000,0.200,3332.000,0.300,1352.000,0.500,1425.000,1.000,549.000,5.000,0
"03/03/08","23:10:46",42654.000,"cc",28154.584,1,0.100,35753.000,0.200,3369.000,0.300,1451.000,0.500,1542.000,1.000,539.000,5.000,0
"03/03/08","23:10:52",42613.000,"cc",28283.190,1,0.100,36104.000,0.200,3270.000,0.300,1275.000,0.500,1459.000,1.000,505.000,5.000,0
"03/03/08","23:10:58",42494.000,"cc",28392.313,1,0.100,35679.000,0.200,3273.000,0.300,1462.000,0.500,1520.000,1.000,560.000,5.000,0
"03/03/08","23:11:04",42428.000,"cc",28373.422,1,0.100,35795.000,0.200,3268.000,0.300,1378.000,0.500,1465.000,1.000,522.000,5.000,0
"03/03/08","23:11:10",42740.000,"cc",28279.180,1,0.100,35974.000,0.200,3400.000,0.300,1401.000,0.500,1460.000,1.000,505.000,5.000,0
"03/03/08","23:11:16",45201.000,"cc",28329.867,1,0.100,37081.000,0.200,3999.000,0.300,1773.000,0.500,1780.000,1.000,568.000,5.000,0
"03/03/08","23:11:22",45122.000,"cc",28278.150,1,0.100,37062.000,0.200,3874.000,0.300,1817.000,0.500,1762.000,1.000,607.000,5.000,0
"03/03/08","23:11:28",44622.000,"cc",28292.877,1,0.100,36734.000,0.200,3824.000,0.300,1715.000,0.500,1740.000,1.000,609.000,5.000,0
"03/03/08","23:11:34",43774.000,"cc",28332.227,1,0.100,36427.000,0.200,3647.000,0.300,1653.000,0.500,1533.000,1.000,514.000,5.000,0
"03/03/08","23:11:40",43697.000,"cc",28345.844,1,0.100,36466.000,0.200,3590.000,0.300,1538.000,0.500,1565.000,1.000,538.000,5.000,0
"03/03/08","23:11:46",45318.000,"cc",28319.822,1,0.100,36947.000,0.200,4085.000,0.300,1898.000,0.500,1799.000,1.000,589.000,5.000,0
"03/03/08","23:11:52",44305.000,"cc",28337.389,1,0.100,36579.000,0.200,3749.000,0.300,1733.000,0.500,1647.000,1.000,597.000,5.000,0
"03/03/08","23:11:58",44517.000,"cc",28291.693,1,0.100,36537.000,0.200,3763.000,0.300,1825.000,0.500,1773.000,1.000,619.000,5.000,0
"03/03/08","23:12:04",45058.000,"cc",28283.506,1,0.100,37165.000,0.200,3924.000,0.300,1759.000,0.500,1624.000,1.000,586.000,5.000,0
"03/03/08","23:12:10",44275.000,"cc",28352.955,1,0.100,36631.000,0.200,3764.000,0.300,1653.000,0.500,1641.000,1.000,586.000,5.000,0
"03/03/08","23:12:16",44184.000,"cc",28322.158,1,0.100,36552.000,0.200,3695.000,0.300,1689.000,0.500,1629.000,1.000,619.000,5.000,0
"03/03/08","23:12:22",45538.000,"cc",28294.285,1,0.100,37050.000,0.200,3998.000,0.300,1900.000,0.500,1913.000,1.000,677.000,5.000,0
"03/03/08","23:12:28",46334.000,"cc",28310.283,1,0.100,37473.000,0.200,4250.000,0.300,1998.000,0.500,1935.000,1.000,677.000,5.000,1.000
"03/03/08","23:12:34",47989.000,"cc",28310.336,1,0.100,38320.000,0.200,4603.000,0.300,2231.000,0.500,2084.000,1.000,751.000,5.000,0
"03/03/08","23:12:40",47869.000,"cc",28268.445,1,0.100,38912.000,0.200,4351.000,0.300,2046.000,0.500,1892.000,1.000,668.000,5.000,0
"03/03/08","23:12:46",46307.000,"cc",28322.723,1,0.100,38048.000,0.200,3976.000,0.300,1851.000,0.500,1807.000,1.000,625.000,5.000,0
"03/03/08","23:12:52",49320.000,"cc",28353.973,1,0.100,39610.000,0.200,4572.000,0.300,2373.000,0.500,2040.000,1.000,725.000,5.000,0
"03/03/08","23:12:58",49096.000,"cc",28286.510,1,0.100,39385.000,0.200,4662.000,0.300,2250.000,0.500,2108.000,1.000,691.000,5.000,0
"03/03/08","23:13:04",50201.000,"cc",28295.572,1,0.100,39698.000,0.200,5028.000,0.300,2498.000,0.500,2230.000,1.000,747.000,5.000,0
"03/03/08","23:13:10",47675.000,"cc",28389.049,1,0.100,38443.000,0.200,4408.000,0.300,2174.000,0.500,1988.000,1.000,662.000,5.000,0
"03/03/08","23:13:16",46386.000,"cc",28270.291,1,0.100,37589.000,0.200,4326.000,0.300,1933.000,0.500,1874.000,1.000,664.000,5.000,0
"03/03/08","23:13:22",50238.000,"cc",28331.598,1,0.100,39496.000,0.200,5179.000,0.300,2544.000,0.500,2231.000,1.000,788.000,5.000,0
"03/03/08","23:13:28",46083.000,"cc",28292.076,1,0.100,37651.000,0.200,4104.000,0.300,1867.000,0.500,1797.000,1.000,664.000,5.000,0
"03/03/08","23:13:34",47313.000,"cc",28341.297,1,0.100,38072.000,0.200,4456.000,0.300,2125.000,0.500,1991.000,1.000,669.000,5.000,0
"03/03/08","23:13:40",50381.000,"cc",28310.766,1,0.100,40153.000,0.200,4956.000,0.300,2385.000,0.500,2137.000,1.000,750.000,5.000,0
"03/03/08","23:13:46",47581.000,"cc",28319.160,1,0.100,38950.000,0.200,4156.000,0.300,1920.000,0.500,1869.000,1.000,686.000,5.000,0
"03/03/08","23:13:52",47013.000,"cc",28346.180,1,0.100,38392.000,0.200,4190.000,0.300,1962.000,0.500,1872.000,1.000,597.000,5.000,0
"03/03/08","23:13:58",48338.000,"cc",28335.213,1,0.100,39109.000,0.200,4453.000,0.300,2129.000,0.500,1974.000,1.000,673.000,5.000,0
"03/03/08","23:14:04",45409.000,"cc",28248.555,1,0.100,37589.000,0.200,3832.000,0.300,1739.000,0.500,1686.000,1.000,563.000,5.000,0
"03/03/08","23:14:10",48007.000,"cc",28338.113,1,0.100,40257.000,0.200,4090.000,0.300,1548.000,0.500,1589.000,1.000,523.000,5.000,0
"03/03/08","23:14:16",53894.000,"cc",28294.994,1,0.100,45361.000,0.200,4779.000,0.300,1604.000,0.500,1598.000,1.000,552.000,5.000,0
"03/03/08","23:14:22",50124.000,"cc",28365.000,1,0.100,41657.000,0.200,4458.000,0.300,1755.000,0.500,1674.000,1.000,580.000,5.000,0
"03/03/08","23:14:28",46990.000,"cc",28354.715,1,0.100,39298.000,0.200,3964.000,0.300,1611.000,0.500,1575.000,1.000,542.000,5.000,0
"03/03/08","23:14:34",44646.000,"cc",28275.625,1,0.100,37014.000,0.200,3792.000,0.300,1628.000,0.500,1644.000,1.000,568.000,5.000,0
"03/03/08","23:14:40",44052.000,"cc",28262.270,1,0.100,36704.000,0.200,3620.000,0.300,1608.000,0.500,1575.000,1.000,545.000,5.000,0
"03/03/08","23:14:46",44193.000,"cc",28283.668,1,0.100,36800.000,0.200,3607.000,0.300,1558.000,0.500,1610.000,1.000,618.000,5.000,0
"03/03/08","23:14:52",46693.000,"cc",28329.205,1,0.100,38985.000,0.200,3940.000,0.300,1632.000,0.500,1587.000,1.000,549.000,5.000,0
"03/03/08","23:14:58",47587.000,"cc",28329.473,1,0.100,39244.000,0.200,4296.000,0.300,1731.000,0.500,1683.000,1.000,633.000,5.000,0
"03/03/08","23:15:04",46237.000,"cc",28331.141,1,0.100,38178.000,0.200,3972.000,0.300,1824.000,0.500,1649.000,1.000,614.000,5.000,0
"03/03/08","23:15:10",42739.000,"cc",28313.240,1,0.100,35826.000,0.200,3462.000,0.300,1467.000,0.500,1450.000,1.000,534.000,5.000,0
"03/03/08","23:15:16",43904.000,"cc",28320.828,1,0.100,36456.000,0.200,3613.000,0.300,1627.000,0.500,1628.000,1.000,580.000,5.000,0
"03/03/08","23:15:22",44507.000,"cc",28338.484,1,0.100,36653.000,0.200,3808.000,0.300,1793.000,0.500,1664.000,1.000,589.000,5.000,0
"03/03/08","23:15:28",44856.000,"cc",28293.707,1,0.100,36867.000,0.200,3901.000,0.300,1841.000,0.500,1680.000,1.000,567.000,5.000,0
"03/03/08","23:15:34",44043.000,"cc",28295.994,1,0.100,36736.000,0.200,3662.000,0.300,1518.000,0.500,1576.000,1.000,551.000,5.000,0
"03/03/08","23:15:40",43750.000,"cc",28286.830,1,0.100,36264.000,0.200,3706.000,0.300,1647.000,0.500,1560.000,1.000,573.000,5.000,0
"03/03/08","23:15:46",42694.000,"cc",28325.660,1,0.100,35864.000,0.200,3395.000,0.300,1410.000,0.500,1452.000,1.000,573.000,5.000,0
"03/03/08","23:15:52",45012.000,"cc",28317.324,1,0.100,36790.000,0.200,4054.000,0.300,1809.000,0.500,1765.000,1.000,594.000,5.000,0
"03/03/08","23:15:58",44052.000,"cc",28267.625,1,0.100,36609.000,0.200,3650.000,0.300,1615.000,0.500,1615.000,1.000,563.000,5.000,0
"03/03/08","23:16:04",43470.000,"cc",28343.973,1,0.100,36376.000,0.200,3472.000,0.300,1574.000,0.500,1535.000,1.000,513.000,5.000,0
"03/03/08","23:16:10",42410.000,"cc",28348.467,1,0.100,35747.000,0.200,3321.000,0.300,1450.000,0.500,1385.000,1.000,507.000,5.000,0
"03/03/08","23:16:16",42407.000,"cc",28336.326,1,0.100,35595.000,0.200,3359.000,0.300,1429.000,0.500,1495.000,1.000,529.000,5.000,0
"03/03/08","23:16:22",42600.000,"cc",28342.699,1,0.100,35815.000,0.200,3320.000,0.300,1464.000,0.500,1464.000,1.000,537.000,5.000,0
"03/03/08","23:16:28",43295.000,"cc",28283.227,1,0.100,35792.000,0.200,3712.000,0.300,1647.000,0.500,1571.000,1.000,573.000,5.000,0
"03/03/08","23:16:34",43410.000,"cc",28311.227,1,0.100,36013.000,0.200,3609.000,0.300,1709.000,0.500,1557.000,1.000,522.000,5.000,0
"03/03/08","23:16:40",44986.000,"cc",28364.160,1,0.100,36698.000,0.200,3995.000,0.300,1910.000,0.500,1774.000,1.000,609.000,5.000,0
"03/03/08","23:16:46",48974.000,"cc",28308.023,1,0.100,38208.000,0.200,5065.000,0.300,2671.000,0.500,2306.000,1.000,724.000,5.000,0
"03/03/08","23:16:52",46885.000,"cc",28267.861,1,0.100,38028.000,0.200,4268.000,0.300,2068.000,0.500,1868.000,1.000,653.000,5.000,0
"03/03/08","23:16:58",46116.000,"cc",28377.334,1,0.100,37530.000,0.200,4148.000,0.300,1911.000,0.500,1897.000,1.000,630.000,5.000,0
"03/03/08","23:17:04",45643.000,"cc",28330.219,1,0.100,37638.000,0.200,4011.000,0.300,1726.000,0.500,1665.000,1.000,603.000,5.000,0